DW8502 Franklin MA US current weather conditions

sailwx.info

Wind from 261 at 0 knots gusting 2

Air temperature 3.3° C
Dewpoint -0.1° C

Last reported at 2020-Jan-27 00:20 UTC.
Time now 2020-Jan-27 13:08 UTC

Location: N 42°07' W 071°26'.
View on Google Maps.

See reports from other nearby stations

  
Tides and Currents Weather Stations Pressure Air Temp Water Temp Dewpoint Dewpoint Depression Visibility Wind Speed Wind Dir Waves Ship Positions
date/time (UTC)wind fromknots sea level pressurealtimeterstation pressurevisibilityair tempwater tempwave heightnotes
2020-Jan-27 00:20 261 0 gusting 2 3.3
2020-Jan-27 00:11 260 1 gusting 2 3.3
2020-Jan-27 00:02 260 1 gusting 2 3.9
2020-Jan-26 23:53 260 0 gusting 2 3.9
2020-Jan-26 23:44 260 4.4
2020-Jan-26 23:35 260 0 gusting 2 4.4
2020-Jan-26 23:26 261 0 gusting 1 4.4
2020-Jan-26 23:17 261 4.4
2020-Jan-26 23:08 265 0 gusting 2 4.4
2020-Jan-26 22:59 270 0 gusting 2 4.4
2020-Jan-26 22:50 271 0 gusting 2 4.4
2020-Jan-26 22:41 271 0 gusting 2 4.4
2020-Jan-26 22:32 267 0 gusting 2 4.4
2020-Jan-26 22:23 264 0 gusting 1 4.4
2020-Jan-26 22:14 250 1 gusting 2 4.4
2020-Jan-26 22:05 286 1 gusting 4 5.0
2020-Jan-26 21:56 294 0 gusting 2 5.0
2020-Jan-26 21:47 294 0 gusting 3 5.0
2020-Jan-26 21:38 291 1 gusting 5 5.6
2020-Jan-26 21:29 253 0 gusting 2 5.6
2020-Jan-26 21:20 293 0 gusting 2 5.6
2020-Jan-26 21:11 285 0 gusting 3 5.6
2020-Jan-26 21:02 295 1 gusting 4 5.6
2020-Jan-26 20:53 286 1 gusting 4 5.6
2020-Jan-26 20:44 291 1 gusting 3 5.6
2020-Jan-26 20:35 284 2 gusting 3 5.6
2020-Jan-26 20:26 285 1 gusting 4 5.6
2020-Jan-26 20:17 290 3 gusting 6 6.1
2020-Jan-26 20:08 310 3 gusting 6 6.7
2020-Jan-26 19:59 296 1 gusting 4 7.2
2020-Jan-26 19:50 297 1 gusting 2 7.2
2020-Jan-26 19:41 297 1 gusting 4 7.2
2020-Jan-26 19:32 287 1 gusting 4 7.2
2020-Jan-26 19:23 292 1 gusting 4 7.2
2020-Jan-26 19:14 279 0 gusting 2 7.2
2020-Jan-26 19:05 280 0 gusting 3 7.2
2020-Jan-26 18:56 295 1 gusting 3 7.2
2020-Jan-26 18:47 299 2 gusting 5 7.2
2020-Jan-26 18:38 289 1 gusting 4 7.8
2020-Jan-26 18:29 286 2 gusting 5 7.8
2020-Jan-26 18:20 286 2 gusting 5 7.8
2020-Jan-26 18:11 282 3 gusting 6 7.8
2020-Jan-26 18:02 270 3 gusting 7 7.8
2020-Jan-26 17:53 280 3 gusting 7 8.3
2020-Jan-26 17:44 280 2 gusting 6 8.9
2020-Jan-26 17:35 286 2 gusting 4 8.3
2020-Jan-26 17:26 295 3 gusting 5 8.3
2020-Jan-26 17:17 297 3 gusting 6 8.3
2020-Jan-26 17:08 292 2 gusting 5 7.8
2020-Jan-26 16:59 291 2 gusting 6 7.8
2020-Jan-26 16:50 305 2 gusting 5 7.8
2020-Jan-26 16:41 284 1 gusting 5 7.8
2020-Jan-26 16:32 286 2 gusting 4 7.8
2020-Jan-26 16:23 287 1 gusting 4 7.8
2020-Jan-26 16:14 289 1 gusting 4 7.2
2020-Jan-26 16:05 312 1 gusting 3 7.2
2020-Jan-26 15:56 303 2 gusting 6 6.7
2020-Jan-26 15:47 286 2 gusting 5 6.7
2020-Jan-26 15:38 290 2 gusting 6 6.1
2020-Jan-26 15:29 293 1 gusting 4 6.1
2020-Jan-26 15:20 296 2 gusting 5 5.6
2020-Jan-26 15:11 294 2 gusting 5 5.6
2020-Jan-26 15:02 285 1 gusting 4 5.0
2020-Jan-26 14:53 285 1 gusting 4 5.0
2020-Jan-26 14:44 278 1 gusting 4 5.0
2020-Jan-26 14:35 284 1 gusting 4 4.4
2020-Jan-26 14:26 275 1 gusting 3 4.4
2020-Jan-26 14:17 293 1 gusting 4 3.9
2020-Jan-26 14:08 276 1 gusting 4 3.9
2020-Jan-26 13:59 258 0 gusting 3 3.3
2020-Jan-26 13:50 278 0 gusting 3 3.3
2020-Jan-26 13:41 293 0 gusting 1 3.3
2020-Jan-26 10:50 260 4.4
2020-Jan-26 10:41 4.4
2020-Jan-26 10:32 260 5.0
2020-Jan-26 10:23 260 5.0
2020-Jan-26 10:14 260 5.0
2020-Jan-26 10:05 260 0 gusting 2 5.0
2020-Jan-26 09:56 255 0 gusting 2 5.6
2020-Jan-26 09:47 5.6
2020-Jan-26 09:38 247 5.6
2020-Jan-26 09:29 5.6
2020-Jan-26 09:20 247 5.6
2020-Jan-26 09:11 247 5.6
2020-Jan-26 09:02 247 5.6
2020-Jan-26 08:53 258 6.1
2020-Jan-26 08:44 294 6.1
2020-Jan-26 08:35 6.1
2020-Jan-26 08:26 6.1
2020-Jan-26 08:17 295 6.1
2020-Jan-26 08:08 295 6.1
2020-Jan-26 07:59 295 0 gusting 2 6.7
2020-Jan-26 07:50 293 6.7
2020-Jan-26 07:32 294 6.7
2020-Jan-26 07:23 6.7
2020-Jan-26 07:14 294 6.7
2020-Jan-26 07:05 6.7
2020-Jan-26 06:56 6.7
2020-Jan-26 06:47 6.1
2020-Jan-26 06:38 6.1
2020-Jan-26 06:29 6.1
2020-Jan-26 06:20 6.1
2020-Jan-26 06:11 6.1
2020-Jan-26 05:53 6.7
2020-Jan-26 05:44 6.1
2020-Jan-26 05:35 293 6.7
2020-Jan-26 05:26 294 0 gusting 2 6.7
2020-Jan-26 05:17 6.7
2020-Jan-26 05:08 294 6.7
2020-Jan-26 04:59 295 1 gusting 3 7.2
2020-Jan-26 04:50 261 0 gusting 4 6.7
2020-Jan-26 04:41 237 7.2
2020-Jan-26 04:32 237 7.2
2020-Jan-26 04:23 7.8
2020-Jan-26 04:14 237 7.8
2020-Jan-26 04:05 237 7.8
2020-Jan-26 03:56 236 0 gusting 2 6.7
2020-Jan-26 03:47 246 6.7
2020-Jan-26 03:38 246 6.7
2020-Jan-26 03:29 246 6.1
2020-Jan-26 03:20 6.1
2020-Jan-26 03:11 6.7
2020-Jan-26 03:02 6.7
2020-Jan-26 02:53 247 6.7
2020-Jan-26 02:44 266 0 gusting 2 6.7
2020-Jan-26 02:35 266 0 gusting 2 6.1
2020-Jan-26 02:26 291 1 gusting 3 6.1
2020-Jan-26 02:17 109 0 gusting 3 6.1
2020-Jan-26 02:08 102 6.7
2020-Jan-26 01:59 103 6.7
2020-Jan-26 01:50 106 6.7
2020-Jan-26 01:41 107 6.7
2020-Jan-26 01:32 114 6.7
2020-Jan-26 01:23 200 6.7
2020-Jan-26 01:14 192 6.7
2020-Jan-26 01:05 128 0 gusting 3 6.7
2020-Jan-26 00:56 126 2 gusting 5 6.7
2020-Jan-26 00:47 133 4 gusting 11 6.7
2020-Jan-26 00:38 128 3 gusting 6 6.7
2020-Jan-26 00:29 129 4 gusting 10 6.7
2020-Jan-26 00:20 126 3 gusting 6 6.7
2020-Jan-26 00:11 126 3 gusting 10 6.7
2020-Jan-26 00:02 121 3 gusting 10 6.7
2020-Jan-25 23:53 125 2 gusting 4 6.7
2020-Jan-25 23:44 123 2 gusting 7 6.7
2020-Jan-25 23:35 122 2 gusting 6 6.1
2020-Jan-25 23:26 113 3 gusting 6 6.1
2020-Jan-25 23:17 122 2 gusting 6 6.1
2020-Jan-25 23:08 131 2 gusting 5 6.1
2020-Jan-25 22:59 130 2 gusting 5 6.1
2020-Jan-25 22:50 128 3 gusting 6 6.1
2020-Jan-25 22:41 117 2 gusting 6 6.1
2020-Jan-25 22:32 113 2 gusting 6 6.1
2020-Jan-25 22:23 125 3 gusting 7 6.1
2020-Jan-25 22:14 126 3 gusting 7 6.1
2020-Jan-25 22:05 124 2 gusting 6 5.6
2020-Jan-25 21:56 127 2 gusting 5 5.6
2020-Jan-25 21:47 122 3 gusting 6 5.6
2020-Jan-25 21:38 125 2 gusting 5 5.6
2020-Jan-25 21:29 105 1 gusting 4 5.6
2020-Jan-25 21:20 124 2 gusting 4 5.6
2020-Jan-25 21:11 120 0 gusting 4 5.6
2020-Jan-25 21:02 119 1 gusting 4 5.6
2020-Jan-25 20:53 127 2 gusting 6 5.6
2020-Jan-25 20:44 120 2 gusting 6 5.6
2020-Jan-25 20:35 125 3 gusting 6 5.6
2020-Jan-25 20:26 121 2 gusting 6 5.6
2020-Jan-25 20:17 121 2 gusting 6 5.6
2020-Jan-25 20:08 123 1 gusting 6 5.6
2020-Jan-25 19:59 130 2 gusting 9 6.1
2020-Jan-25 19:50 132 2 gusting 9 6.1
2020-Jan-25 19:41 123 2 gusting 6 5.6
2020-Jan-25 19:32 119 2 gusting 5 5.6
2020-Jan-25 19:23 121 2 gusting 6 5.6
2020-Jan-25 19:14 125 2 gusting 5 5.6
2020-Jan-25 19:05 121 2 gusting 6 5.6
2020-Jan-25 18:56 120 1 gusting 5 5.6
2020-Jan-25 18:47 120 2 gusting 6 5.6
2020-Jan-25 18:38 110 2 gusting 4 5.6
2020-Jan-25 18:29 103 1 gusting 3 5.6
2020-Jan-25 18:20 108 1 gusting 4 5.6
2020-Jan-25 18:11 121 2 gusting 4 5.6
2020-Jan-25 18:02 117 1 gusting 4 5.6
2020-Jan-25 17:53 130 1 gusting 3 5.6
2020-Jan-25 17:44 127 1 gusting 3 5.0
2020-Jan-25 17:35 130 1 gusting 3 5.0
2020-Jan-25 17:26 127 1 gusting 3 5.0
2020-Jan-25 17:17 116 1 gusting 4 5.0
2020-Jan-25 17:08 129 1 gusting 4 5.0
2020-Jan-25 16:59 103 0 gusting 2 5.0
2020-Jan-25 16:50 114 0 gusting 4 5.0
2020-Jan-25 16:41 113 0 gusting 2 5.0
2020-Jan-25 16:32 117 1 gusting 4 5.0
2020-Jan-25 16:23 116 1 gusting 4 5.0
2020-Jan-25 16:14 112 1 gusting 4 5.0
2020-Jan-25 16:05 129 2 gusting 6 5.0
2020-Jan-25 15:56 132 1 gusting 4 5.0
2020-Jan-25 15:47 108 1 gusting 3 5.0
2020-Jan-25 15:38 113 1 gusting 4 4.4
2020-Jan-25 15:29 125 1 gusting 4 4.4
2020-Jan-25 15:20 118 1 gusting 4 4.4
2020-Jan-25 15:11 120 1 gusting 6 4.4
2020-Jan-25 15:02 126 0 gusting 4 4.4
2020-Jan-25 14:53 122 1 gusting 3 4.4
2020-Jan-25 14:44 123 1 gusting 3 4.4
2020-Jan-25 14:35 126 1 gusting 3 4.4
2020-Jan-25 14:26 130 2 gusting 5 4.4
2020-Jan-25 14:17 108 1 gusting 5 3.9
2020-Jan-25 14:08 096 1 gusting 2 3.9
2020-Jan-25 13:59 096 0 gusting 2 3.3
2020-Jan-25 13:50 091 0 gusting 4 3.3
2020-Jan-25 13:41 087 0 gusting 1 3.3
2020-Jan-25 13:32 086 0 gusting 1 2.8
2020-Jan-25 13:23 085 0 gusting 1 2.8
2020-Jan-25 13:14 085 0 gusting 1 2.2
2020-Jan-25 13:05 085 2.2